Time,TemperatureF,DewpointF,PressureIn,WindDirection,WindDirectionDegrees,WindSpeedMPH,WindSpeedGustMPH,Humidity,HourlyPrecipIn,Conditions,Clouds,dailyrainin,SoftwareType,DateUTC
2013-03-22 00:00:00,43.7,19.8,29.74,NE,38,0.0,0.0,38,0.00,,,0.00,HomebrewedOnLinux,2013-03-22 04:00:00,
2013-03-22 00:05:00,43.7,19.8,29.74,NNE,33,0.0,0.0,38,0.00,,,0.00,HomebrewedOnLinux,2013-03-22 04:05:00,
2013-03-22 00:10:00,43.7,19.8,29.74,NNE,25,0.0,0.0,38,0.00,,,0.00,HomebrewedOnLinux,2013-03-22 04:10:00,
2013-03-22 00:15:00,43.7,19.8,29.74,NE,46,0.0,0.0,38,0.00,,,0.00,HomebrewedOnLinux,2013-03-22 04:15:00,
2013-03-22 00:25:00,43.5,19.6,29.71,North,1,0.0,0.0,38,0.00,,,0.00,HomebrewedOnLinux,2013-03-22 04:25:00,
2013-03-22 00:35:00,43.3,19.5,29.71,NNW,342,0.0,0.0,38,0.00,,,0.00,HomebrewedOnLinux,2013-03-22 04:35:00,
2013-03-22 00:40:00,43.0,19.1,29.71,North,3,0.0,0.0,38,0.00,,,0.00,HomebrewedOnLinux,2013-03-22 04:40:00,
2013-03-22 00:45:00,43.0,19.1,29.74,NNE,22,0.0,0.0,38,0.00,,,0.00,HomebrewedOnLinux,2013-03-22 04:45:00,
2013-03-22 00:50:00,42.8,19.0,29.74,NNE,22,0.0,0.0,38,0.00,,,0.00,HomebrewedOnLinux,2013-03-22 04:50:00,
2013-03-22 00:55:00,42.8,19.0,29.74,NNE,24,0.0,0.0,38,0.00,,,0.00,HomebrewedOnLinux,2013-03-22 04:55:00,
2013-03-22 01:00:00,42.4,18.6,29.74,NE,47,0.0,0.0,38,0.00,,,0.00,HomebrewedOnLinux,2013-03-22 05:00:00,
2013-03-22 01:05:00,42.4,18.6,29.74,ENE,75,0.0,0.0,38,0.00,,,0.00,HomebrewedOnLinux,2013-03-22 05:05:00,
2013-03-22 01:10:00,42.3,18.5,29.74,East,80,0.0,0.0,38,0.00,,,0.00,HomebrewedOnLinux,2013-03-22 05:10:00,
2013-03-22 01:15:00,42.1,18.3,29.74,ENE,70,0.0,0.0,38,0.00,,,0.00,HomebrewedOnLinux,2013-03-22 05:15:00,
2013-03-22 01:20:00,41.9,18.2,29.74,NE,42,0.0,0.0,38,0.00,,,0.00,HomebrewedOnLinux,2013-03-22 05:20:00,
2013-03-22 01:25:00,41.9,18.2,29.74,NE,38,0.0,0.0,38,0.00,,,0.00,HomebrewedOnLinux,2013-03-22 05:25:00,
2013-03-22 01:30:00,41.7,18.0,29.74,NE,38,0.0,0.0,38,0.00,,,0.00,HomebrewedOnLinux,2013-03-22 05:30:00,
2013-03-22 01:40:00,41.5,18.4,29.74,NE,44,0.0,0.0,39,0.00,,,0.00,HomebrewedOnLinux,2013-03-22 05:40:00,
2013-03-22 01:50:00,41.4,18.3,29.74,NE,56,0.0,0.0,39,0.00,,,0.00,HomebrewedOnLinux,2013-03-22 05:50:00,
2013-03-22 01:55:00,41.2,18.1,29.74,NE,45,0.0,0.0,39,0.00,,,0.00,HomebrewedOnLinux,2013-03-22 05:55:00,
2013-03-22 02:00:00,41.0,18.0,29.74,NW,306,0.0,0.0,39,0.00,,,0.00,HomebrewedOnLinux,2013-03-22 06:00:00,
2013-03-22 02:05:00,40.8,18.3,29.74,West,270,0.0,0.0,40,0.00,,,0.00,HomebrewedOnLinux,2013-03-22 06:05:00,
2013-03-22 02:10:00,40.5,18.1,29.74,WNW,291,0.0,0.0,40,0.00,,,0.00,HomebrewedOnLinux,2013-03-22 06:10:00,
2013-03-22 02:15:00,40.3,17.9,29.74,North,359,0.0,0.0,40,0.00,,,0.00,HomebrewedOnLinux,2013-03-22 06:15:00,
2013-03-22 02:25:00,39.9,17.9,29.74,NNW,329,0.0,0.0,40,0.00,,,0.00,HomebrewedOnLinux,2013-03-22 06:25:00,
2013-03-22 02:30:00,40.1,18.0,29.74,NNE,27,0.0,0.0,40,0.00,,,0.00,HomebrewedOnLinux,2013-03-22 06:30:00,
2013-03-22 02:35:00,39.9,18.2,29.74,NNE,22,0.0,0.0,41,0.00,,,0.00,HomebrewedOnLinux,2013-03-22 06:35:00,
2013-03-22 02:40:00,39.7,18.0,29.77,NNE,22,0.0,0.0,41,0.00,,,0.00,HomebrewedOnLinux,2013-03-22 06:40:00,
2013-03-22 02:45:00,39.6,17.8,29.77,NNE,20,0.0,0.0,41,0.00,,,0.00,HomebrewedOnLinux,2013-03-22 06:45:00,
2013-03-22 02:50:00,39.6,18.2,29.77,NNW,327,0.0,0.0,42,0.00,,,0.00,HomebrewedOnLinux,2013-03-22 06:50:00,
2013-03-22 03:00:00,39.4,17.8,29.77,NW,315,0.0,0.0,41,0.00,,,0.00,HomebrewedOnLinux,2013-03-22 07:00:00,
2013-03-22 03:05:00,39.4,17.8,29.77,NW,315,0.0,0.0,41,0.00,,,0.00,HomebrewedOnLinux,2013-03-22 07:05:00,
2013-03-22 03:10:00,39.2,17.9,29.77,NW,315,0.0,0.0,42,0.00,,,0.00,HomebrewedOnLinux,2013-03-22 07:10:00,
2013-03-22 03:15:00,39.2,17.8,29.77,NW,315,0.0,0.0,42,0.00,,,0.00,HomebrewedOnLinux,2013-03-22 07:15:00,
2013-03-22 03:20:00,38.8,17.7,29.77,NNW,328,0.0,0.0,42,0.00,,,0.00,HomebrewedOnLinux,2013-03-22 07:20:00,
2013-03-22 03:25:00,38.8,17.7,29.77,NNW,338,0.0,0.0,42,0.00,,,0.00,HomebrewedOnLinux,2013-03-22 07:25:00,
2013-03-22 03:35:00,38.8,17.7,29.79,NNW,338,0.0,0.0,42,0.00,,,0.00,HomebrewedOnLinux,2013-03-22 07:35:00,
2013-03-22 03:40:00,38.8,17.7,29.79,NNW,343,0.0,0.0,42,0.00,,,0.00,HomebrewedOnLinux,2013-03-22 07:40:00,
2013-03-22 03:45:00,38.8,17.7,29.79,NNW,338,0.0,0.0,42,0.00,,,0.00,HomebrewedOnLinux,2013-03-22 07:45:00,
2013-03-22 03:50:00,39.0,17.9,29.79,NNW,338,0.0,0.0,42,0.00,,,0.00,HomebrewedOnLinux,2013-03-22 07:50:00,
2013-03-22 03:55:00,39.0,17.9,29.79,NNW,338,0.0,0.0,42,0.00,,,0.00,HomebrewedOnLinux,2013-03-22 07:55:00,
2013-03-22 04:00:00,39.2,17.9,29.79,NNW,338,0.0,0.0,42,0.00,,,0.00,HomebrewedOnLinux,2013-03-22 08:00:00,
2013-03-22 04:10:00,39.2,18.1,29.79,NNW,338,0.0,0.0,42,0.00,,,0.00,HomebrewedOnLinux,2013-03-22 08:10:00,
2013-03-22 04:15:00,39.4,18.2,29.79,NNW,345,0.0,0.0,42,0.00,,,0.00,HomebrewedOnLinux,2013-03-22 08:15:00,
2013-03-22 04:20:00,39.6,18.4,29.79,North,0,0.0,0.0,42,0.00,,,0.00,HomebrewedOnLinux,2013-03-22 08:20:00,
2013-03-22 04:30:00,39.4,18.2,29.82,North,0,0.0,0.0,42,0.00,,,0.00,HomebrewedOnLinux,2013-03-22 08:30:00,
2013-03-22 04:40:00,39.6,18.5,29.82,NW,306,0.0,0.0,42,0.00,,,0.00,HomebrewedOnLinux,2013-03-22 08:40:00,
2013-03-22 04:45:00,39.7,19.0,29.79,West,273,0.0,0.0,43,0.00,,,0.00,HomebrewedOnLinux,2013-03-22 08:45:00,
2013-03-22 04:50:00,39.7,19.1,29.79,WNW,293,0.0,0.0,43,0.00,,,0.00,HomebrewedOnLinux,2013-03-22 08:50:00,
2013-03-22 04:55:00,39.7,19.1,29.79,WNW,293,0.0,0.0,43,0.00,,,0.00,HomebrewedOnLinux,2013-03-22 08:55:00,
2013-03-22 05:00:00,39.7,19.1,29.79,NW,304,0.0,0.0,43,0.00,,,0.00,HomebrewedOnLinux,2013-03-22 09:00:00,
2013-03-22 05:10:00,39.7,19.6,29.79,NNW,338,0.0,0.0,44,0.00,,,0.00,HomebrewedOnLinux,2013-03-22 09:10:00,
2013-03-22 05:20:00,39.9,19.8,29.79,West,270,0.0,0.0,44,0.00,,,0.00,HomebrewedOnLinux,2013-03-22 09:20:00,
2013-03-22 05:25:00,39.9,20.0,29.82,West,261,0.0,0.0,44,0.00,,,0.00,HomebrewedOnLinux,2013-03-22 09:25:00,
2013-03-22 05:35:00,39.9,20.3,29.82,WNW,283,0.0,0.0,45,0.00,,,0.00,HomebrewedOnLinux,2013-03-22 09:35:00,
2013-03-22 05:45:00,40.3,20.5,29.82,SSW,201,0.0,0.0,45,0.00,,,0.00,HomebrewedOnLinux,2013-03-22 09:45:00,
2013-03-22 05:55:00,40.6,20.3,29.82,SW,228,0.0,0.0,44,0.00,,,0.00,HomebrewedOnLinux,2013-03-22 09:55:00,
2013-03-22 06:00:00,40.6,19.9,29.82,SW,216,0.0,0.0,43,0.00,,,0.00,HomebrewedOnLinux,2013-03-22 10:00:00,
2013-03-22 06:05:00,40.6,19.9,29.82,WSW,248,0.0,0.0,43,0.00,,,0.00,HomebrewedOnLinux,2013-03-22 10:05:00,
2013-03-22 06:10:00,40.6,19.8,29.82,WNW,282,0.0,0.0,43,0.00,,,0.00,HomebrewedOnLinux,2013-03-22 10:10:00,
2013-03-22 06:20:00,40.6,19.4,29.82,WNW,293,0.0,2.0,42,0.00,,,0.00,HomebrewedOnLinux,2013-03-22 10:20:00,
2013-03-22 06:25:00,40.6,19.4,29.82,SW,214,0.0,0.0,42,0.00,,,0.00,HomebrewedOnLinux,2013-03-22 10:25:00,
2013-03-22 06:30:00,40.8,19.2,29.82,SW,220,1.0,3.0,42,0.00,,,0.00,HomebrewedOnLinux,2013-03-22 10:30:00,
2013-03-22 06:35:00,40.6,18.8,29.82,West,274,2.0,4.0,41,0.00,,,0.00,HomebrewedOnLinux,2013-03-22 10:35:00,
2013-03-22 06:40:00,40.6,18.8,29.82,SW,217,1.0,2.0,41,0.00,,,0.00,HomebrewedOnLinux,2013-03-22 10:40:00,
2013-03-22 06:45:00,40.5,18.6,29.82,SW,219,0.0,2.0,41,0.00,,,0.00,HomebrewedOnLinux,2013-03-22 10:45:00,
2013-03-22 06:55:00,40.3,18.5,29.82,West,262,2.0,6.0,41,0.00,,,0.00,HomebrewedOnLinux,2013-03-22 10:55:00,
2013-03-22 07:00:00,40.3,18.5,29.82,West,260,0.0,2.0,41,0.00,,,0.00,HomebrewedOnLinux,2013-03-22 11:00:00,
2013-03-22 07:05:00,40.3,18.2,29.82,WNW,284,0.0,2.0,41,0.00,,,0.00,HomebrewedOnLinux,2013-03-22 11:05:00,
2013-03-22 07:10:00,40.5,18.6,29.82,SW,233,0.0,0.0,41,0.00,,,0.00,HomebrewedOnLinux,2013-03-22 11:10:00,
2013-03-22 07:20:00,40.3,17.9,29.82,SW,231,1.0,3.0,40,0.00,,,0.00,HomebrewedOnLinux,2013-03-22 11:20:00,
2013-03-22 07:30:00,40.3,17.9,29.85,SW,235,0.0,2.0,40,0.00,,,0.00,HomebrewedOnLinux,2013-03-22 11:30:00,
2013-03-22 07:35:00,40.3,17.9,29.85,SW,230,1.0,3.0,40,0.00,,,0.00,HomebrewedOnLinux,2013-03-22 11:35:00,
2013-03-22 07:40:00,40.3,17.9,29.85,West,274,0.0,0.0,40,0.00,,,0.00,HomebrewedOnLinux,2013-03-22 11:40:00,
2013-03-22 07:45:00,40.1,17.7,29.85,WSW,258,0.0,1.0,40,0.00,,,0.00,HomebrewedOnLinux,2013-03-22 11:45:00,
2013-03-22 07:50:00,40.1,17.7,29.85,West,267,0.0,3.0,40,0.00,,,0.00,HomebrewedOnLinux,2013-03-22 11:50:00,
2013-03-22 07:55:00,39.9,17.6,29.85,WSW,246,0.0,1.0,40,0.00,,,0.00,HomebrewedOnLinux,2013-03-22 11:55:00,
2013-03-22 08:05:00,40.1,17.7,29.85,South,186,0.0,0.0,40,0.00,,,0.00,HomebrewedOnLinux,2013-03-22 12:05:00,
2013-03-22 08:15:00,40.1,17.7,29.85,SSE,149,0.0,0.0,40,0.00,,,0.00,HomebrewedOnLinux,2013-03-22 12:15:00,
2013-03-22 08:25:00,40.3,17.9,29.85,SSW,206,0.0,1.0,40,0.00,,,0.00,HomebrewedOnLinux,2013-03-22 12:25:00,
2013-03-22 08:35:00,40.3,17.9,29.85,SW,230,1.0,3.0,40,0.00,,,0.00,HomebrewedOnLinux,2013-03-22 12:35:00,
2013-03-22 08:40:00,40.3,17.9,29.85,SW,217,0.0,1.0,40,0.00,,,0.00,HomebrewedOnLinux,2013-03-22 12:40:00,
2013-03-22 08:50:00,40.1,17.7,29.85,SSW,210,1.0,3.0,40,0.00,,,0.00,HomebrewedOnLinux,2013-03-22 12:50:00,
2013-03-22 08:55:00,40.6,18.2,29.85,SE,134,0.0,2.0,40,0.00,,,0.00,HomebrewedOnLinux,2013-03-22 12:55:00,
2013-03-22 09:00:00,40.8,18.4,29.85,SW,235,2.0,4.0,40,0.00,,,0.00,HomebrewedOnLinux,2013-03-22 13:00:00,
2013-03-22 09:05:00,40.8,18.4,29.85,WSW,243,2.0,3.0,40,0.00,,,0.00,HomebrewedOnLinux,2013-03-22 13:05:00,
2013-03-22 09:15:00,41.4,18.9,29.85,SW,219,0.0,3.0,40,0.00,,,0.00,HomebrewedOnLinux,2013-03-22 13:15:00,
2013-03-22 09:25:00,42.1,19.5,29.85,SSW,204,1.0,4.0,40,0.00,,,0.00,HomebrewedOnLinux,2013-03-22 13:25:00,
2013-03-22 09:30:00,42.1,19.5,29.85,SSE,148,1.0,4.0,40,0.00,,,0.00,HomebrewedOnLinux,2013-03-22 13:30:00,
2013-03-22 09:35:00,42.1,19.5,29.85,East,92,1.0,2.0,40,0.00,,,0.00,HomebrewedOnLinux,2013-03-22 13:35:00,
2013-03-22 09:40:00,42.4,19.8,29.85,SW,228,0.0,2.0,40,0.00,,,0.00,HomebrewedOnLinux,2013-03-22 13:40:00,
2013-03-22 09:50:00,43.0,19.9,29.85,WSW,252,1.0,4.0,39,0.00,,,0.00,HomebrewedOnLinux,2013-03-22 13:50:00,
2013-03-22 10:00:00,43.3,20.1,29.85,ESE,105,0.0,1.0,39,0.00,,,0.00,HomebrewedOnLinux,2013-03-22 14:00:00,
2013-03-22 10:05:00,43.3,20.1,29.85,ESE,115,3.0,5.0,39,0.00,,,0.00,HomebrewedOnLinux,2013-03-22 14:05:00,
2013-03-22 10:10:00,43.3,20.1,29.85,East,101,3.0,4.0,39,0.00,,,0.00,HomebrewedOnLinux,2013-03-22 14:10:00,
2013-03-22 10:15:00,43.7,20.4,29.85,SSW,200,2.0,5.0,39,0.00,,,0.00,HomebrewedOnLinux,2013-03-22 14:15:00,
2013-03-22 10:25:00,44.6,21.2,29.85,East,101,2.0,4.0,39,0.00,,,0.00,HomebrewedOnLinux,2013-03-22 14:25:00,
2013-03-22 10:35:00,45.0,21.5,29.85,ENE,65,0.0,0.0,39,0.00,,,0.00,HomebrewedOnLinux,2013-03-22 14:35:00,
2013-03-22 10:40:00,44.8,21.4,29.85,SSW,195,0.0,4.0,39,0.00,,,0.00,HomebrewedOnLinux,2013-03-22 14:40:00,
2013-03-22 10:45:00,44.6,21.2,29.85,SSW,212,0.0,1.0,39,0.00,,,0.00,HomebrewedOnLinux,2013-03-22 14:45:00,
2013-03-22 10:50:00,44.4,21.0,29.85,WNW,285,1.0,4.0,39,0.00,,,0.00,HomebrewedOnLinux,2013-03-22 14:50:00,
2013-03-22 11:00:00,44.4,21.0,29.85,WSW,256,0.0,3.0,39,0.00,,,0.00,HomebrewedOnLinux,2013-03-22 15:00:00,
2013-03-22 11:10:00,44.2,20.9,29.85,WSW,256,0.0,2.0,39,0.00,,,0.00,HomebrewedOnLinux,2013-03-22 15:10:00,
2013-03-22 11:15:00,44.4,21.0,29.85,West,273,0.0,0.0,39,0.00,,,0.00,HomebrewedOnLinux,2013-03-22 15:15:00,
2013-03-22 11:20:00,44.4,21.0,29.85,West,273,1.0,3.0,39,0.00,,,0.00,HomebrewedOnLinux,2013-03-22 15:20:00,
2013-03-22 11:30:00,44.8,21.4,29.85,WSW,252,1.0,3.0,39,0.00,,,0.00,HomebrewedOnLinux,2013-03-22 15:30:00,
2013-03-22 11:35:00,45.1,21.7,29.85,WSW,256,0.0,0.0,39,0.00,,,0.00,HomebrewedOnLinux,2013-03-22 15:35:00,
2013-03-22 11:45:00,45.9,22.3,29.85,West,266,0.0,2.0,39,0.00,,,0.00,HomebrewedOnLinux,2013-03-22 15:45:00,
2013-03-22 11:50:00,46.4,22.4,29.85,South,190,0.0,1.0,38,0.00,,,0.00,HomebrewedOnLinux,2013-03-22 15:50:00,
2013-03-22 11:55:00,46.8,22.5,29.85,SSE,149,0.0,1.0,38,0.00,,,0.00,HomebrewedOnLinux,2013-03-22 15:55:00,
2013-03-22 12:00:00,47.3,23.0,29.85,WSW,237,1.0,3.0,38,0.00,,,0.00,HomebrewedOnLinux,2013-03-22 16:00:00,
2013-03-22 12:10:00,47.3,23.0,29.85,SW,236,0.0,2.0,38,0.00,,,0.00,HomebrewedOnLinux,2013-03-22 16:10:00,
2013-03-22 12:20:00,47.3,23.0,29.85,WSW,248,1.0,4.0,38,0.00,,,0.00,HomebrewedOnLinux,2013-03-22 16:20:00,
2013-03-22 12:30:00,47.5,23.2,29.85,West,273,0.0,3.0,38,0.00,,,0.00,HomebrewedOnLinux,2013-03-22 16:30:00,
2013-03-22 12:35:00,47.5,23.2,29.85,SW,234,1.0,4.0,38,0.00,,,0.00,HomebrewedOnLinux,2013-03-22 16:35:00,
2013-03-22 12:45:00,47.1,22.8,29.85,WNW,301,0.0,3.0,38,0.00,,,0.00,HomebrewedOnLinux,2013-03-22 16:45:00,
2013-03-22 12:55:00,47.8,23.5,29.85,WSW,238,0.0,2.0,38,0.00,,,0.00,HomebrewedOnLinux,2013-03-22 16:55:00,
2013-03-22 13:00:00,48.4,24.0,29.85,SW,223,2.0,4.0,38,0.00,,,0.00,HomebrewedOnLinux,2013-03-22 17:00:00,
2013-03-22 13:05:00,48.9,24.4,29.85,West,274,1.0,4.0,38,0.00,,,0.00,HomebrewedOnLinux,2013-03-22 17:05:00,
2013-03-22 13:10:00,49.3,24.8,29.85,SSE,161,1.0,3.0,38,0.00,,,0.00,HomebrewedOnLinux,2013-03-22 17:10:00,
2013-03-22 13:20:00,48.7,23.6,29.85,West,271,0.0,2.0,37,0.00,,,0.00,HomebrewedOnLinux,2013-03-22 17:20:00,
2013-03-22 13:25:00,49.1,24.3,29.85,West,268,1.0,3.0,38,0.00,,,0.00,HomebrewedOnLinux,2013-03-22 17:25:00,
2013-03-22 13:30:00,48.9,23.9,29.85,West,268,0.0,2.0,37,0.00,,,0.00,HomebrewedOnLinux,2013-03-22 17:30:00,
2013-03-22 13:35:00,48.9,23.8,29.85,NW,318,0.0,2.0,37,0.00,,,0.00,HomebrewedOnLinux,2013-03-22 17:35:00,
2013-03-22 13:40:00,48.9,23.8,29.85,WNW,289,1.0,4.0,37,0.00,,,0.00,HomebrewedOnLinux,2013-03-22 17:40:00,
2013-03-22 13:45:00,48.9,24.1,29.85,WSW,255,0.0,2.0,37,0.00,,,0.00,HomebrewedOnLinux,2013-03-22 17:45:00,
2013-03-22 13:55:00,49.5,24.3,29.85,NNE,13,0.0,0.0,37,0.00,,,0.00,HomebrewedOnLinux,2013-03-22 17:55:00,
2013-03-22 14:05:00,50.2,24.9,29.85,WNW,282,1.0,4.0,37,0.00,,,0.00,HomebrewedOnLinux,2013-03-22 18:05:00,
2013-03-22 14:10:00,50.0,24.8,29.85,WNW,302,0.0,2.0,37,0.00,,,0.00,HomebrewedOnLinux,2013-03-22 18:10:00,
2013-03-22 14:15:00,50.2,24.9,29.85,South,186,0.0,2.0,37,0.00,,,0.00,HomebrewedOnLinux,2013-03-22 18:15:00,
2013-03-22 14:20:00,50.2,24.9,29.85,West,268,0.0,3.0,37,0.00,,,0.00,HomebrewedOnLinux,2013-03-22 18:20:00,
2013-03-22 14:30:00,50.2,24.9,29.85,NW,326,0.0,2.0,37,0.00,,,0.00,HomebrewedOnLinux,2013-03-22 18:30:00,
2013-03-22 14:40:00,50.2,24.9,29.85,SW,220,0.0,4.0,37,0.00,,,0.00,HomebrewedOnLinux,2013-03-22 18:40:00,
2013-03-22 14:45:00,50.2,24.9,29.85,WSW,252,1.0,4.0,37,0.00,,,0.00,HomebrewedOnLinux,2013-03-22 18:45:00,
2013-03-22 14:50:00,50.2,24.9,29.85,West,279,1.0,3.0,37,0.00,,,0.00,HomebrewedOnLinux,2013-03-22 18:50:00,
2013-03-22 14:55:00,50.4,25.1,29.82,North,7,0.0,2.0,37,0.00,,,0.00,HomebrewedOnLinux,2013-03-22 18:55:00,
2013-03-22 15:05:00,50.4,25.1,29.82,NNE,12,0.0,0.0,37,0.00,,,0.00,HomebrewedOnLinux,2013-03-22 19:05:00,
2013-03-22 15:10:00,50.5,25.2,29.82,WSW,254,1.0,3.0,37,0.00,,,0.00,HomebrewedOnLinux,2013-03-22 19:10:00,
2013-03-22 15:15:00,50.7,25.4,29.82,West,267,2.0,3.0,37,0.00,,,0.00,HomebrewedOnLinux,2013-03-22 19:15:00,
2013-03-22 15:20:00,50.5,25.2,29.82,West,278,0.0,3.0,37,0.00,,,0.00,HomebrewedOnLinux,2013-03-22 19:20:00,
2013-03-22 15:25:00,50.5,25.2,29.82,NW,307,0.0,0.0,37,0.00,,,0.00,HomebrewedOnLinux,2013-03-22 19:25:00,
2013-03-22 15:30:00,50.5,25.2,29.82,North,5,0.0,0.0,37,0.00,,,0.00,HomebrewedOnLinux,2013-03-22 19:30:00,
2013-03-22 15:40:00,50.4,25.1,29.82,WSW,240,1.0,3.0,37,0.00,,,0.00,HomebrewedOnLinux,2013-03-22 19:40:00,
2013-03-22 15:50:00,50.4,25.1,29.82,West,268,0.0,3.0,37,0.00,,,0.00,HomebrewedOnLinux,2013-03-22 19:50:00,
2013-03-22 15:55:00,50.4,25.1,29.82,WSW,249,0.0,0.0,37,0.00,,,0.00,HomebrewedOnLinux,2013-03-22 19:55:00,
2013-03-22 16:00:00,50.4,25.1,29.79,WNW,298,0.0,0.0,37,0.00,,,0.00,HomebrewedOnLinux,2013-03-22 20:00:00,
2013-03-22 16:05:00,50.5,25.2,29.79,West,275,0.0,0.0,37,0.00,,,0.00,HomebrewedOnLinux,2013-03-22 20:05:00,
2013-03-22 16:15:00,50.5,25.2,29.79,WNW,299,0.0,0.0,37,0.00,,,0.00,HomebrewedOnLinux,2013-03-22 20:15:00,
2013-03-22 16:25:00,50.9,25.6,29.79,WNW,298,0.0,0.0,37,0.00,,,0.00,HomebrewedOnLinux,2013-03-22 20:25:00,
2013-03-22 16:30:00,51.1,25.7,29.79,WNW,301,0.0,0.0,37,0.00,,,0.00,HomebrewedOnLinux,2013-03-22 20:30:00,
2013-03-22 16:35:00,51.1,25.7,29.79,NW,321,0.0,0.0,37,0.00,,,0.00,HomebrewedOnLinux,2013-03-22 20:35:00,
2013-03-22 16:40:00,51.3,25.9,29.79,NE,35,0.0,0.0,37,0.00,,,0.00,HomebrewedOnLinux,2013-03-22 20:40:00,
2013-03-22 16:50:00,51.3,25.9,29.79,NNW,336,0.0,2.0,37,0.00,,,0.00,HomebrewedOnLinux,2013-03-22 20:50:00,
2013-03-22 16:55:00,51.3,25.9,29.79,West,270,0.0,0.0,37,0.00,,,0.00,HomebrewedOnLinux,2013-03-22 20:55:00,
2013-03-22 17:00:00,51.3,25.9,29.79,NW,304,0.0,2.0,37,0.00,,,0.00,HomebrewedOnLinux,2013-03-22 21:00:00,
2013-03-22 17:05:00,51.3,25.9,29.79,SW,220,0.0,3.0,37,0.00,,,0.00,HomebrewedOnLinux,2013-03-22 21:05:00,
2013-03-22 17:10:00,51.6,26.2,29.79,West,270,1.0,3.0,37,0.00,,,0.00,HomebrewedOnLinux,2013-03-22 21:10:00,
2013-03-22 17:20:00,51.8,26.4,29.79,NW,326,0.0,0.0,37,0.00,,,0.00,HomebrewedOnLinux,2013-03-22 21:20:00,
2013-03-22 17:25:00,52.0,26.5,29.79,North,350,0.0,0.0,37,0.00,,,0.00,HomebrewedOnLinux,2013-03-22 21:25:00,
2013-03-22 17:35:00,52.5,27.0,29.79,NW,304,0.0,2.0,37,0.00,,,0.00,HomebrewedOnLinux,2013-03-22 21:35:00,
2013-03-22 17:40:00,52.5,27.0,29.79,East,96,0.0,2.0,37,0.00,,,0.00,HomebrewedOnLinux,2013-03-22 21:40:00,
2013-03-22 17:45:00,53.2,27.6,29.79,South,180,0.0,2.0,37,0.00,,,0.00,HomebrewedOnLinux,2013-03-22 21:45:00,
2013-03-22 17:50:00,52.9,27.3,29.79,North,5,0.0,1.0,37,0.00,,,0.00,HomebrewedOnLinux,2013-03-22 21:50:00,
2013-03-22 18:00:00,52.5,27.0,29.79,NNW,348,0.0,0.0,37,0.00,,,0.00,HomebrewedOnLinux,2013-03-22 22:00:00,
2013-03-22 18:10:00,52.3,26.8,29.79,NNW,340,0.0,0.0,37,0.00,,,0.00,HomebrewedOnLinux,2013-03-22 22:10:00,
2013-03-22 18:15:00,52.3,26.8,29.79,NW,320,0.0,0.0,37,0.00,,,0.00,HomebrewedOnLinux,2013-03-22 22:15:00,
2013-03-22 18:25:00,52.3,27.0,29.79,West,270,0.0,0.0,37,0.00,,,0.00,HomebrewedOnLinux,2013-03-22 22:25:00,
2013-03-22 18:35:00,52.2,27.1,29.79,WNW,285,0.0,0.0,38,0.00,,,0.00,HomebrewedOnLinux,2013-03-22 22:35:00,
2013-03-22 18:45:00,52.0,27.2,29.79,North,349,0.0,0.0,38,0.00,,,0.00,HomebrewedOnLinux,2013-03-22 22:45:00,
2013-03-22 18:50:00,51.8,27.0,29.79,WNW,299,0.0,0.0,38,0.00,,,0.00,HomebrewedOnLinux,2013-03-22 22:50:00,
2013-03-22 18:55:00,51.6,26.9,29.77,NW,317,1.0,2.0,38,0.00,,,0.00,HomebrewedOnLinux,2013-03-22 22:55:00,
2013-03-22 19:05:00,51.4,27.0,29.77,North,351,0.0,0.0,38,0.00,,,0.00,HomebrewedOnLinux,2013-03-22 23:05:00,
2013-03-22 19:10:00,51.1,27.0,29.77,WNW,303,0.0,0.0,39,0.00,,,0.00,HomebrewedOnLinux,2013-03-22 23:10:00,
2013-03-22 19:20:00,50.9,26.8,29.79,North,355,0.0,0.0,39,0.00,,,0.00,HomebrewedOnLinux,2013-03-22 23:20:00,
2013-03-22 19:25:00,50.7,26.7,29.79,North,0,0.0,0.0,39,0.00,,,0.00,HomebrewedOnLinux,2013-03-22 23:25:00,
2013-03-22 19:30:00,50.5,27.0,29.79,North,350,0.0,0.0,40,0.00,,,0.00,HomebrewedOnLinux,2013-03-22 23:30:00,
2013-03-22 19:35:00,50.5,27.1,29.79,NNW,338,0.0,0.0,40,0.00,,,0.00,HomebrewedOnLinux,2013-03-22 23:35:00,
2013-03-22 19:45:00,50.2,27.4,29.79,NNW,338,0.0,0.0,41,0.00,,,0.00,HomebrewedOnLinux,2013-03-22 23:45:00,
2013-03-22 19:50:00,50.2,27.4,29.79,NNW,338,0.0,0.0,41,0.00,,,0.00,HomebrewedOnLinux,2013-03-22 23:50:00,
2013-03-22 19:55:00,50.2,27.5,29.79,NNW,338,0.0,0.0,41,0.00,,,0.00,HomebrewedOnLinux,2013-03-22 23:55:00,
2013-03-22 20:00:00,50.0,27.8,29.79,NW,319,0.0,0.0,42,0.00,,,0.00,HomebrewedOnLinux,2013-03-23 00:00:00,
2013-03-22 20:10:00,49.8,28.8,29.79,NW,315,0.0,0.0,44,0.00,,,0.00,HomebrewedOnLinux,2013-03-23 00:10:00,
2013-03-22 20:20:00,49.8,29.4,29.79,NW,315,0.0,0.0,45,0.00,,,0.00,HomebrewedOnLinux,2013-03-23 00:20:00,
2013-03-22 20:30:00,49.6,29.7,29.79,WNW,294,0.0,0.0,46,0.00,,,0.00,HomebrewedOnLinux,2013-03-23 00:30:00,
2013-03-22 20:35:00,49.6,29.7,29.79,West,270,0.0,0.0,46,0.00,,,0.00,HomebrewedOnLinux,2013-03-23 00:35:00,
2013-03-22 20:40:00,49.6,29.8,29.82,West,270,0.0,0.0,46,0.00,,,0.00,HomebrewedOnLinux,2013-03-23 00:40:00,
2013-03-22 20:45:00,49.5,30.1,29.82,West,270,0.0,0.0,47,0.00,,,0.00,HomebrewedOnLinux,2013-03-23 00:45:00,
2013-03-22 20:55:00,49.5,30.1,29.82,NW,304,0.0,0.0,47,0.00,,,0.00,HomebrewedOnLinux,2013-03-23 00:55:00,
2013-03-22 21:05:00,49.3,29.9,29.82,NW,315,0.0,0.0,47,0.00,,,0.00,HomebrewedOnLinux,2013-03-23 01:05:00,
2013-03-22 21:10:00,49.3,30.3,29.82,NW,315,0.0,0.0,48,0.00,,,0.00,HomebrewedOnLinux,2013-03-23 01:10:00,
2013-03-22 21:15:00,49.3,30.4,29.82,NW,315,0.0,0.0,48,0.00,,,0.00,HomebrewedOnLinux,2013-03-23 01:15:00,
2013-03-22 21:20:00,49.3,30.4,29.82,NW,315,0.0,0.0,48,0.00,,,0.00,HomebrewedOnLinux,2013-03-23 01:20:00,
2013-03-22 21:30:00,49.1,30.3,29.82,NW,315,0.0,0.0,48,0.00,,,0.00,HomebrewedOnLinux,2013-03-23 01:30:00,
2013-03-22 21:40:00,49.1,30.3,29.82,NW,315,0.0,0.0,48,0.00,,,0.00,HomebrewedOnLinux,2013-03-23 01:40:00,
2013-03-22 21:45:00,49.1,30.5,29.82,NW,315,0.0,0.0,48,0.00,,,0.00,HomebrewedOnLinux,2013-03-23 01:45:00,
2013-03-22 21:55:00,48.9,30.6,29.82,NW,315,0.0,0.0,49,0.00,,,0.00,HomebrewedOnLinux,2013-03-23 01:55:00,
2013-03-22 22:05:00,48.9,30.6,29.82,NW,315,0.0,0.0,49,0.00,,,0.00,HomebrewedOnLinux,2013-03-23 02:05:00,
2013-03-22 22:15:00,48.7,30.5,29.82,North,0,0.0,0.0,49,0.00,,,0.00,HomebrewedOnLinux,2013-03-23 02:15:00,
2013-03-22 22:20:00,48.7,30.9,29.82,North,0,0.0,0.0,50,0.00,,,0.00,HomebrewedOnLinux,2013-03-23 02:20:00,
2013-03-22 22:25:00,48.7,30.8,29.82,North,0,0.0,0.0,50,0.00,,,0.00,HomebrewedOnLinux,2013-03-23 02:25:00,
2013-03-22 22:30:00,48.7,30.7,29.82,North,0,0.0,0.0,50,0.00,,,0.00,HomebrewedOnLinux,2013-03-23 02:30:00,
2013-03-22 22:35:00,48.6,30.7,29.82,North,354,0.0,0.0,50,0.00,,,0.00,HomebrewedOnLinux,2013-03-23 02:35:00,
2013-03-22 22:40:00,48.7,30.9,29.82,WNW,293,0.0,0.0,50,0.00,,,0.00,HomebrewedOnLinux,2013-03-23 02:40:00,
2013-03-22 22:50:00,48.6,31.0,29.82,West,270,0.0,0.0,50,0.00,,,0.00,HomebrewedOnLinux,2013-03-23 02:50:00,
2013-03-22 23:00:00,48.4,30.9,29.82,NNW,338,0.0,0.0,50,0.00,,,0.00,HomebrewedOnLinux,2013-03-23 03:00:00,
2013-03-22 23:05:00,48.4,31.1,29.82,NNW,338,0.0,0.0,51,0.00,,,0.00,HomebrewedOnLinux,2013-03-23 03:05:00,
2013-03-22 23:15:00,48.2,30.9,29.82,NNW,338,0.0,0.0,51,0.00,,,0.00,HomebrewedOnLinux,2013-03-23 03:15:00,
2013-03-22 23:20:00,48.2,31.3,29.82,NNW,338,0.0,0.0,52,0.00,,,0.00,HomebrewedOnLinux,2013-03-23 03:20:00,
2013-03-22 23:25:00,48.2,31.4,29.82,NNW,330,0.0,0.0,52,0.00,,,0.00,HomebrewedOnLinux,2013-03-23 03:25:00,
2013-03-22 23:30:00,48.2,31.7,29.82,West,272,0.0,0.0,53,0.00,,,0.00,HomebrewedOnLinux,2013-03-23 03:30:00,
2013-03-22 23:35:00,48.0,31.9,29.82,WNW,293,0.0,0.0,53,0.00,,,0.00,HomebrewedOnLinux,2013-03-23 03:35:00,
2013-03-22 23:40:00,48.2,31.9,29.82,WNW,294,0.0,0.0,53,0.00,,,0.00,HomebrewedOnLinux,2013-03-23 03:40:00,
2013-03-22 23:50:00,48.2,32.1,29.82,WNW,293,0.0,0.0,53,0.00,,,0.00,HomebrewedOnLinux,2013-03-23 03:50:00,